Location: U-46 Planetarium
(42.0300°N, 88.2740°W)
Time: 00:05:14
(UTC-05:00)

Cosmos 2344 - Pass Details

Date: 16 December 2017
Orbit: 1275 x 2966 km, 63.3° (Epoch: 15 July)

Event Time Altitude Azimuth Distance (km) Brightness Sun altitude
Rises 18:39:22 0° 183° (S) 4,326 6.5 -24.4°
Reaches altitude 10° 18:42:27 10° 174° (S) 3,290 5.8 -25.0°
Enters shadow 18:47:53 33° 131° (SE) 1,999 4.3 -26.0°
